Weather History for Rolla, ND

Change the Weather History Date:

Thursday, November 1, 2012

  Actual Average (KRUG) Record (KRUG)
Temperature  
Mean Temperature 24 °F -  
Max Temperature 26 °F 46 °F 70 °F (1983)
Min Temperature 21 °F 27 °F -2 °F (1984)
Degree Days  
Heating Degree Days 42    
Moisture  
Dew Point 23 °F    
Average Humidity 97    
Maximum Humidity 100    
Minimum Humidity 86    
Precipitation  
Precipitation 0.00 in - - ()
Sea Level Pressure  
Sea Level Pressure 30.15 in    
Wind  
Wind Speed 13 mph (NE)    
Max Wind Speed 16 mph    
Max Gust Speed 20 mph    
Visibility 10 miles    
Events      
Averages and records for this station are not official NWS values.
T = Trace of Precipitation, MM = Missing Value Source: NWS Daily Summary

Daily Weather History Graph

Daily Weather History Graph

Search for Another Location

Airport:

Trip Planner

Search our weather history database for the weather conditions in past years. The results will help you decide how hot, cold, wet, or windy it might be!

Date:

Astronomy

Nov. 01, 2012 Rise Set
Actual Time 8:26 AM CDT 6:17 PM CDT
Civil Twilight 7:53 AM CDT 6:50 PM CDT
Nautical Twilight 7:15 AM CDT 7:27 PM CDT
Astronomical Twilight 6:39 AM CDT 8:04 PM CDT
Moon 8:04 PM CDT (11/1) 11:11 AM CDT (11/1)
Length of Visible Light 10h 57m
Length of Day
9h 50m
Waning Gibbous, 93% of the Moon is Illuminated
Nov 1
Waning Gibbous
Nov 6
Last Quarter
Nov 13
New
Nov 20
First Quarter
Nov 28
Full

Hourly Weather History & Observations

Time (CDT) Temp. Windchill Dew Point Humidity Pressure Visibility Wind Dir Wind Speed Gust Speed Precip Events Conditions
12:15 AM 26.6 °F 14.7 °F 26.6 °F 100% 30.16 in 10.0 mi NNE 15.0 mph 19.6 mph N/A   Overcast
12:35 AM 26.6 °F 14.7 °F 26.6 °F 100% 30.16 in 10.0 mi NNE 15.0 mph - N/A   Overcast
12:55 AM 26.6 °F 15.2 °F 26.6 °F 100% 30.16 in 10.0 mi NNE 13.8 mph - N/A   Overcast
1:15 AM 26.6 °F 15.2 °F 24.8 °F 93% 30.16 in 10.0 mi NNE 13.8 mph - N/A   Overcast
1:35 AM 24.8 °F 13.4 °F 24.8 °F 100% 30.16 in 10.0 mi NNE 12.7 mph - N/A   Overcast
1:55 AM 24.8 °F 14.0 °F 24.8 °F 100% 30.17 in 10.0 mi NNE 11.5 mph - N/A   Overcast
2:15 AM 24.8 °F 12.4 °F 24.8 °F 100% 30.16 in 10.0 mi NNE 15.0 mph - N/A   Overcast
2:35 AM 24.8 °F 12.4 °F 24.8 °F 100% 30.17 in 10.0 mi NNE 15.0 mph - N/A   Overcast
2:55 AM 24.8 °F 13.4 °F 24.8 °F 100% 30.18 in 10.0 mi NNE 12.7 mph - N/A   Overcast
3:15 AM 23.0 °F 10.1 °F 23.0 °F 100% 30.16 in 10.0 mi NE 15.0 mph - N/A   Overcast
3:35 AM 23.0 °F 11.1 °F 23.0 °F 100% 30.16 in 10.0 mi NNE 12.7 mph - N/A   Overcast
3:55 AM 23.0 °F 10.1 °F 23.0 °F 100% 30.17 in 10.0 mi NNE 15.0 mph - N/A   Overcast
4:15 AM 23.0 °F 10.1 °F 23.0 °F 100% 30.17 in 10.0 mi NE 15.0 mph - N/A   Overcast
4:35 AM 23.0 °F 10.1 °F 23.0 °F 100% 30.17 in 10.0 mi NNE 15.0 mph - N/A   Overcast
4:55 AM 23.0 °F 11.1 °F 23.0 °F 100% 30.17 in 10.0 mi NNE 12.7 mph - N/A   Overcast
5:15 AM 23.0 °F 11.1 °F 23.0 °F 100% 30.17 in 10.0 mi NNE 12.7 mph - N/A   Overcast
5:35 AM 23.0 °F 11.1 °F 23.0 °F 100% 30.17 in 10.0 mi NNE 12.7 mph - N/A   Overcast
5:55 AM 23.0 °F 10.6 °F 23.0 °F 100% 30.16 in 10.0 mi NE 13.8 mph - N/A   Overcast
6:15 AM 21.2 °F 8.3 °F 21.2 °F 100% 30.17 in 10.0 mi NNE 13.8 mph - N/A   Overcast
6:35 AM 21.2 °F 7.8 °F 21.2 °F 100% 30.17 in 10.0 mi NNE 15.0 mph - N/A   Overcast
6:55 AM 21.2 °F 7.3 °F 21.2 °F 100% 30.16 in 10.0 mi NNE 16.1 mph - N/A   Overcast
7:15 AM 21.2 °F 7.8 °F 21.2 °F 100% 30.17 in 10.0 mi NNE 15.0 mph - N/A   Overcast
7:35 AM 21.2 °F 10.1 °F 21.2 °F 100% 30.18 in 10.0 mi NE 10.4 mph - N/A   Overcast
7:55 AM 21.2 °F 10.1 °F 21.2 °F 100% 30.18 in 10.0 mi NNE 10.4 mph - N/A   Overcast
8:15 AM 21.2 °F 9.5 °F 21.2 °F 100% 30.17 in 10.0 mi NE 11.5 mph - N/A   Overcast
8:35 AM 21.2 °F 9.5 °F 21.2 °F 100% 30.18 in 10.0 mi NNE 11.5 mph - N/A   Overcast
8:55 AM 21.2 °F 10.9 °F 21.2 °F 100% 30.18 in 10.0 mi NNE 9.2 mph - N/A   Overcast
9:15 AM 21.2 °F 9.5 °F 21.2 °F 100% 30.19 in 10.0 mi NE 11.5 mph - N/A   Overcast
9:35 AM 21.2 °F 10.9 °F 19.4 °F 93% 30.18 in 10.0 mi NE 9.2 mph - N/A   Overcast
10:55 AM 23.0 °F 12.4 °F 21.2 °F 93% 30.18 in 10.0 mi NNE 10.4 mph - N/A   Overcast
11:15 AM 23.0 °F 12.4 °F 21.2 °F 93% 30.17 in 10.0 mi ENE 10.4 mph - N/A   Overcast
11:35 AM 23.0 °F 12.4 °F 21.2 °F 93% 30.18 in 10.0 mi NNE 10.4 mph - N/A   Overcast
11:55 AM 23.0 °F 11.7 °F 21.2 °F 93% 30.17 in 10.0 mi NE 11.5 mph - N/A   Overcast
12:15 PM 23.0 °F 11.7 °F 21.2 °F 93% 30.17 in 10.0 mi NE 11.5 mph - N/A   Overcast
12:35 PM 23.0 °F 11.7 °F 21.2 °F 93% 30.16 in 10.0 mi NNE 11.5 mph - N/A   Overcast
1:15 PM 24.8 °F 15.3 °F 23.0 °F 93% 30.15 in 10.0 mi East 9.2 mph - N/A   Overcast
1:35 PM 23.0 °F 12.4 °F 21.2 °F 93% 30.14 in 10.0 mi ENE 10.4 mph - N/A   Overcast
1:55 PM 24.8 °F 14.0 °F 21.2 °F 86% 30.13 in 10.0 mi ENE 11.5 mph - N/A   Overcast
2:15 PM 24.8 °F 14.0 °F 23.0 °F 93% 30.14 in 10.0 mi ENE 11.5 mph - N/A   Overcast
2:35 PM 24.8 °F 15.3 °F 23.0 °F 93% 30.13 in 10.0 mi NE 9.2 mph - N/A   Overcast
2:55 PM 24.8 °F 14.6 °F 23.0 °F 93% 30.13 in 10.0 mi NE 10.4 mph - N/A   Overcast
3:15 PM 24.8 °F 15.3 °F 23.0 °F 93% 30.13 in 10.0 mi ENE 9.2 mph - N/A   Overcast
3:35 PM 24.8 °F 14.6 °F 23.0 °F 93% 30.12 in 10.0 mi NE 10.4 mph - N/A   Overcast
4:15 PM 24.8 °F 14.6 °F 23.0 °F 93% 30.13 in 10.0 mi ENE 10.4 mph - N/A   Overcast
4:35 PM 24.8 °F 15.3 °F 23.0 °F 93% 30.13 in 10.0 mi NE 9.2 mph - N/A   Overcast
4:55 PM 24.8 °F 15.3 °F 23.0 °F 93% 30.13 in 10.0 mi NE 9.2 mph - N/A   Overcast
5:15 PM 24.8 °F 14.0 °F 23.0 °F 93% 30.13 in 10.0 mi ENE 11.5 mph - N/A   Overcast
5:35 PM 24.8 °F 14.0 °F 23.0 °F 93% 30.11 in 10.0 mi ENE 11.5 mph - N/A   Overcast
6:15 PM 24.8 °F 13.4 °F 23.0 °F 93% 30.11 in 10.0 mi ENE 12.7 mph - N/A   Overcast
6:35 PM 24.8 °F 14.0 °F 23.0 °F 93% 30.11 in 10.0 mi ENE 11.5 mph - N/A   Overcast
6:55 PM 24.8 °F 13.4 °F 24.8 °F 100% 30.11 in 10.0 mi ENE 12.7 mph - N/A   Overcast
7:15 PM 24.8 °F 12.9 °F 24.8 °F 100% 30.12 in 10.0 mi ENE 13.8 mph - N/A   Overcast
7:35 PM 24.8 °F 14.0 °F 24.8 °F 100% 30.13 in 10.0 mi East 11.5 mph - N/A   Overcast
7:55 PM 24.8 °F 14.0 °F 24.8 °F 100% 30.13 in 10.0 mi ENE 11.5 mph - N/A   Overcast
8:15 PM 24.8 °F 13.4 °F 24.8 °F 100% 30.12 in 10.0 mi ENE 12.7 mph - N/A   Overcast
8:35 PM 24.8 °F 12.9 °F 23.0 °F 93% 30.11 in 10.0 mi ENE 13.8 mph - N/A   Overcast
8:55 PM 24.8 °F 14.0 °F 24.8 °F 100% 30.11 in 10.0 mi East 11.5 mph - N/A   Overcast
9:15 PM 24.8 °F 14.0 °F 24.8 °F 100% 30.11 in 10.0 mi ENE 11.5 mph - N/A   Overcast
9:35 PM 24.8 °F 12.9 °F 24.8 °F 100% 30.11 in 10.0 mi ENE 13.8 mph - N/A   Overcast
9:55 PM 24.8 °F 14.6 °F 24.8 °F 100% 30.11 in 10.0 mi East 10.4 mph - N/A   Overcast
10:15 PM 24.8 °F 14.0 °F 24.8 °F 100% 30.11 in 10.0 mi East 11.5 mph 17.3 mph N/A   Overcast
10:35 PM 24.8 °F 14.6 °F 24.8 °F 100% 30.12 in 10.0 mi East 10.4 mph - N/A   Overcast
10:55 PM 24.8 °F 16.1 °F 24.8 °F 100% 30.13 in 10.0 mi East 8.1 mph - N/A   Overcast
11:15 PM 24.8 °F 16.1 °F 24.8 °F 100% 30.12 in 10.0 mi East 8.1 mph - N/A   Overcast
11:35 PM 24.8 °F 15.3 °F 24.8 °F 100% 30.11 in 10.0 mi East 9.2 mph - N/A   Overcast
11:55 PM 24.8 °F 15.3 °F 24.8 °F 100% 30.11 in 10.0 mi East 9.2 mph - N/A   Overcast